Terminal Aerodrome Forecast
Issued by NWS Pocatello, ID

Home | Current Version | Previous Version | Text Only | Print | Product List | Glossary On
Versions: 1 2 3 4 5 6 7 8 9 10 11 12 13 14 15 16 17 18 19 20 21
000
FTUS45 KPIH 242320
TAFBYI
TAF
KBYI 242320Z 2500/2524 VRB06KT P6SM -SHRA VCTS OVC060CB
     FM250300 VRB06KT P6SM VCSH BKN070
     FM251000 VRB06KT 4SM BR SCT002 BKN080
     FM251400 25007KT P6SM BKN100
     FM251900 27010KT P6SM VCTS BKN090CB=

USA.gov is the U.S. government's official web portal to all federal, state and local government web resources and services.